Sanderson, TX

11:22 PM CDT on September 25, 2016 (GMT -0500)
Dryden

Weather History for K6R6 - August, 2013

Change the Weather History Date:

Sunday, August 25, 2013

  Actual Average (KFST) Record (KFST)
Temperature  
Mean Temperature 88 °F -  
Max Temperature 99 °F 89 °F 102 °F (2002)
Min Temperature 78 °F 67 °F 64 °F (1997)
Cooling Degree Days 23    
Growing Degree Days 38 (Base 50)    
Moisture  
Dew Point 60 °F    
Average Humidity 41    
Maximum Humidity 62    
Minimum Humidity 24    
Precipitation  
Precipitation 0.00 in - - ()
Sea Level Pressure  
Sea Level Pressure 29.97 in    
Wind  
Wind Speed 7 mph (East)    
Max Wind Speed 16 mph    
Max Gust Speed 23 mph    
Averages and records for this station are not official NWS values.
T = Trace of Precipitation, MM = Missing Value Source: NWS Daily Summary

Daily Weather History Graph

Daily Weather History Graph

Search for Another Location

Airport or City:

Trip Planner

Search our weather history database for the weather conditions in past years. The results will help you decide how hot, cold, wet, or windy it might be!

Date:

Astronomy

Aug. 25, 2013 Rise Set
Actual Time 7:22 AM CDT 8:19 PM CDT
Civil Twilight 6:57 AM CDT 8:43 PM CDT
Nautical Twilight 6:28 AM CDT 9:12 PM CDT
Astronomical Twilight 5:58 AM CDT 9:42 PM CDT
Moon 11:19 PM CDT (8/25) 12:00 PM CDT (8/25)
Length of Visible Light 13h 46m
Length of Day
12h 56m
Waning Gibbous, 75% of the Moon is Illuminated
Aug 25
Waning Gibbous
Aug 28
Last Quarter
Sep 5
New
Sep 12
First Quarter
Sep 19
Full

Hourly Weather History & Observations

Time (CDT) Temp. Heat Index Dew Point Humidity Pressure Visibility Wind Dir Wind Speed Gust Speed Precip Events Conditions
12:53 AM 82.9 °F 83.2 °F 60.1 °F 46% 29.95 in - East 5.8 mph - N/A   Unknown
1:53 AM 81.0 °F 81.3 °F 59.0 °F 47% 29.95 in - NE 6.9 mph - N/A   Unknown
2:53 AM 80.1 °F 80.7 °F 59.0 °F 48% 29.94 in - NE 5.8 mph - N/A   Unknown
3:53 AM 79.0 °F - 60.1 °F 52% 29.95 in - NE 5.8 mph - N/A   Unknown
4:53 AM 78.1 °F - 60.1 °F 54% 29.96 in - NE 5.8 mph - N/A   Unknown
5:53 AM 78.1 °F - 62.1 °F 58% 29.98 in - Calm Calm - N/A   Unknown
6:53 AM 78.1 °F - 64.0 °F 62% 29.99 in - ESE 4.6 mph - N/A   Unknown
7:53 AM 79.0 °F - 64.9 °F 62% 30.01 in - East 5.8 mph - N/A   Unknown
8:53 AM 82.0 °F 83.8 °F 64.9 °F 56% 30.02 in - ESE 9.2 mph - N/A   Unknown
9:53 AM 86.0 °F 87.6 °F 64.9 °F 49% 30.03 in - ESE 9.2 mph - N/A   Unknown
10:53 AM 89.1 °F 89.3 °F 62.1 °F 40% 30.04 in - SE 10.4 mph 16.1 mph N/A   Unknown
11:53 AM 91.0 °F 91.9 °F 63.0 °F 39% 30.02 in - Variable 6.9 mph - N/A   Unknown
12:53 PM 91.9 °F 92.9 °F 63.0 °F 38% 30.01 in - ESE 12.7 mph 18.4 mph N/A   Unknown
1:53 PM 96.1 °F 96.4 °F 61.0 °F 31% 29.99 in - East 11.5 mph 23.0 mph N/A   Unknown
2:53 PM 97.0 °F 96.5 °F 59.0 °F 28% 29.98 in - East 16.1 mph 20.7 mph N/A   Unknown
3:53 PM 96.1 °F 95.2 °F 57.9 °F 28% 29.95 in - ESE 10.4 mph 20.7 mph N/A   Unknown
4:53 PM 98.1 °F 96.4 °F 55.9 °F 24% 29.93 in - SE 10.4 mph 19.6 mph N/A   Unknown
5:53 PM 97.0 °F 96.1 °F 57.9 °F 27% 29.92 in - East 10.4 mph - N/A   Unknown
6:53 PM 96.1 °F 95.6 °F 59.0 °F 29% 29.91 in - ESE 12.7 mph - N/A   Unknown
7:53 PM 93.9 °F 92.9 °F 57.9 °F 30% 29.91 in - ESE 12.7 mph - N/A   Unknown
8:53 PM 91.0 °F 90.0 °F 57.9 °F 33% 29.92 in - ESE 6.9 mph - N/A   Unknown
9:53 PM 90.0 °F 88.8 °F 57.9 °F 34% 29.95 in - East 6.9 mph - N/A   Unknown
10:53 PM 84.9 °F 83.9 °F 57.0 °F 38% 29.97 in - East 4.6 mph - N/A   Unknown
11:53 PM 86.0 °F 85.0 °F 57.9 °F 38% 29.98 in - East 5.8 mph - N/A   Unknown